Port Hope, MI

6:48 AM EDT on May 29, 2017 (GMT -0400)
Port Hope

Weather History for KP58 - November, 2012

Change the Weather History Date:

Wednesday, November 7, 2012

  Actual Average Record
Temperature  
Mean Temperature 39 °F -  
Max Temperature 41 °F 46 °F 66 °F (2016)
Min Temperature 37 °F 35 °F 24 °F (2002)
Degree Days  
Heating Degree Days 26    
Moisture  
Dew Point 30 °F    
Average Humidity 68    
Maximum Humidity 77    
Minimum Humidity 60    
Precipitation  
Precipitation 0.00 in - - ()
Sea Level Pressure  
Sea Level Pressure 30.11 in    
Wind  
Wind Speed 13 mph (East)    
Max Wind Speed 17 mph    
Max Gust Speed -    
Averages and records for this station are not official NWS values.
T = Trace of Precipitation, MM = Missing Value Source: NWS Daily Summary

Daily Weather History Graph

Daily Weather History Graph

Search for Another Location

Airport or City:

Trip Planner

Search our weather history database for the weather conditions in past years. The results will help you decide how hot, cold, wet, or windy it might be!

Date:

Astronomy

Nov. 07, 2012 Rise Set
Actual Time 7:16 AM EST 5:12 PM EST
Civil Twilight 6:45 AM EST 5:43 PM EST
Nautical Twilight 6:11 AM EST 6:17 PM EST
Astronomical Twilight 5:37 AM EST 6:51 PM EST
Moon No Moon Rise 1:34 PM EST (11/7)
Length of Visible Light 10h 57m
Length of Day
9h 56m
Last Quarter, 43% of the Moon is Illuminated
Nov 7
Last Quarter
Nov 13
New
Nov 20
First Quarter
Nov 28
Full
Dec 6
Last Quarter

Hourly Weather History & Observations

Time (EST) Temp. Windchill Dew Point Humidity Pressure Visibility Wind Dir Wind Speed Gust Speed Precip Events Conditions
12:51 AM 37.9 °F 29.6 °F 27.0 °F 65% 30.06 in - East 13.8 mph - N/A   Unknown
1:51 AM 37.9 °F 29.2 °F 26.1 °F 62% 30.06 in - East 15.0 mph - N/A   Unknown
2:51 AM 37.0 °F 28.9 °F 27.0 °F 67% 30.06 in - ESE 12.7 mph - N/A   Unknown
3:51 AM 37.9 °F 29.6 °F 28.9 °F 70% 30.06 in - East 13.8 mph - N/A   Unknown
4:51 AM 37.9 °F 28.5 °F 28.9 °F 70% 30.07 in - East 17.3 mph - N/A   Unknown
5:51 AM 37.9 °F 28.9 °F 30.0 °F 73% 30.07 in - East 16.1 mph - N/A   Unknown
6:51 AM 37.9 °F 29.2 °F 30.9 °F 76% 30.07 in - ESE 15.0 mph - N/A   Unknown
7:51 AM 39.0 °F 31.8 °F 30.9 °F 73% 30.09 in - East 11.5 mph - N/A   Unknown
8:51 AM 39.0 °F 31.0 °F 30.9 °F 73% 30.10 in - East 13.8 mph - N/A   Unknown
9:51 AM 39.9 °F 32.1 °F 33.1 °F 77% 30.12 in - East 13.8 mph - N/A   Unknown
10:51 AM 39.9 °F 31.4 °F 33.1 °F 77% 30.14 in - ESE 16.1 mph - N/A   Unknown
11:51 AM 41.0 °F 33.5 °F 33.1 °F 73% 30.13 in - ESE 13.8 mph - N/A   Unknown
12:51 PM 41.0 °F 35.2 °F 32.0 °F 70% 30.12 in - ESE 9.2 mph - N/A   Unknown
1:51 PM 41.0 °F 36.4 °F 30.9 °F 67% 30.12 in - East 6.9 mph - N/A   Unknown
2:51 PM 41.0 °F 35.8 °F 30.0 °F 65% 30.12 in - ENE 8.1 mph - N/A   Unknown
3:51 PM 41.0 °F 35.2 °F 30.0 °F 65% 30.12 in - East 9.2 mph - N/A   Unknown
4:51 PM 41.0 °F 38.0 °F 28.0 °F 60% 30.14 in - East 4.6 mph - N/A   Unknown
6:51 PM 39.9 °F 32.5 °F 28.9 °F 65% 30.15 in - ENE 12.7 mph - N/A   Unknown
7:51 PM 41.0 °F 35.8 °F 28.9 °F 62% 30.16 in - ENE 8.1 mph - N/A   Unknown
8:51 PM 41.0 °F 37.1 °F 28.9 °F 62% 30.16 in - ENE 5.8 mph - N/A   Unknown
9:51 PM 39.9 °F 33.4 °F 28.9 °F 65% 30.17 in - ENE 10.4 mph - N/A   Unknown
10:51 PM 39.9 °F 33.9 °F 28.9 °F 65% 30.17 in - NE 9.2 mph - N/A   Unknown
11:51 PM 39.9 °F 35.1 °F 28.0 °F 63% 30.17 in - ENE 6.9 mph - N/A   Unknown